{"data":{"norad_id":66395,"epoch":"2026-05-25T05:28:11.576064Z","epoch_age_seconds":49375,"freshness":"FRESH","line1":"1 66395U 25257R   26145.22791176  .00023084  00000+0  78815-3 0  9991","line2":"2 66395  53.1572 221.3807 0001406  69.1932 290.9219 15.30237971 31372","mean_motion":15.30237971,"eccentricity":0.0001406,"inclination_deg":53.1572,"raan_deg":221.3807,"arg_perigee_deg":69.1932,"mean_anomaly_deg":290.9219,"bstar":0.00078815,"rev_number":3137,"period_min":94.103010596383,"perigee_km":474.1381318412,"apogee_km":476.06526256285,"semimajor_km":6853.238697202,"source":"CELESTRAK","updated_at":"2026-05-25T13:38:21.203458Z"}}